Location: Pine Creek
(45.5072°N, 110.5649°W)
Time: 21:34:13
(UTC+00:00)

N. Korean satellite - Visible Passes

Search period start: 21 January 2022 00:00
Search period end: 31 January 2022 00:00
Orbit: 447 x 491 km, 97.3° (Epoch: 21 January)

Date Brightness Start Highest point End Pass type
(mag) Time Alt. Az. Time Alt. Az. Time Alt. Az.
21 Jan 7.2 12:56:57 10° N 12:59:28 40° NNW 12:59:28 40° NNW visible
22 Jan 7.7 12:27:48 10° NNE 12:30:22 40° NE 12:30:22 40° NE visible
22 Jan 8.5 14:02:41 10° NW 14:04:05 12° WNW 14:04:26 12° WNW visible
23 Jan 8.9 11:59:04 10° NE 12:01:17 23° ENE 12:01:17 23° ENE visible
23 Jan 7.7 13:32:15 10° NNW 13:35:11 23° WNW 13:35:21 23° WNW visible
24 Jan 9.9 11:31:18 10° ENE 11:32:12 12° E 11:32:12 12° E visible
24 Jan 6.7 13:02:38 10° N 13:06:11 50° WNW 13:06:15 50° WNW visible
25 Jan 6.8 12:33:23 10° NNE 12:37:02 68° ESE 12:37:11 67° ESE visible
25 Jan 8.6 14:09:02 10° NW 14:09:37 10° WNW 14:10:12 10° WNW visible
26 Jan 8.5 12:04:31 10° NNE 12:07:45 29° E 12:08:06 29° ESE visible
26 Jan 7.9 13:37:59 10° NNW 13:40:44 21° WNW 13:42:09 16° W visible
27 Jan 9.7 11:36:24 10° ENE 11:38:20 14° E 11:39:02 13° ESE visible
27 Jan 6.9 13:08:13 10° N 13:11:42 43° WNW 13:13:06 28° SW visible
28 Jan 6.6 12:38:52 10° NNE 12:42:32 81° ESE 12:44:03 33° S visible
29 Jan 8.2 12:09:53 10° NNE 12:13:14 34° E 12:15:02 21° SSE visible
29 Jan 8.0 13:43:36 10° NNW 13:46:08 18° WNW 13:48:39 10° WSW visible
30 Jan 9.5 11:41:29 10° NE 11:43:47 16° E 11:46:05 10° SE visible
30 Jan 7.1 13:13:42 10° N 13:17:05 37° WNW 13:20:08 12° SW visible
